User: anonymous   Login
Location: Carbonear
(47.7333°N, 53.2500°W)
Time: 12:17:58
(UTC+00:00)
Language:

First-Move - Orbit

View from above orbital plane
View from above orbital plane
View from above satellite
View from above satellite

Ground track
Ground track

The orbit data is extracted from the following two-line orbital elements,

1 39439U 13066Z   22338.09456973  .00002794  00000-0  31809-3 0  9991
2 39439  97.6580 305.1104 0059881 200.4412 159.4406 14.85681613488319
Epoch (UTC): 04 December 2022 02:16:10
Eccentricity: 0.0059881
inclination: 97.6580°
perigee height: 569 km
apogee height: 653 km
right ascension of ascending node: 305.1104°
argument of perigee: 200.4412°
revolutions per day: 14.85681613
mean anomaly at epoch: 159.4406°
orbit number at epoch: 48831

The dashed part of the orbit path shows where the satellite is in the earth's shadow,  

DLR